Hourly Weather Allariz

Today, 4 December, Friday

Time Temperature Precipitation Wind Pressure Humidity
00:00 +2°C° 0.5 mm 6 mps 700 mmHg 91%
01:00 +2°C° 0.5 mm 5 mps 699 mmHg 93%
02:00 +1°C° 0.5 mm 5 mps 699 mmHg 94%
03:00 0°C° 0.9 mm 5 mps 699 mmHg 94%
04:00 0°C° 0.9 mm 5 mps 699 mmHg 94%
05:00 0°C° 0.9 mm 4 mps 699 mmHg 94%
06:00 0°C° 0.5 mm 4 mps 698 mmHg 93%
07:00 0°C° 0.5 mm 4 mps 698 mmHg 91%
08:00 0°C° 0.5 mm 4 mps 698 mmHg 90%
09:00 +1°C° 0.4 mm 3 mps 698 mmHg 91%
10:00 +2°C° 0.4 mm 3 mps 698 mmHg 93%
11:00 +2°C° 0.4 mm 3 mps 698 mmHg 94%
12:00 +2°C° 0.8 mm 3 mps 698 mmHg 95%
13:00 +1°C° 0.8 mm 3 mps 697 mmHg 96%
14:00 +1°C° 0.8 mm 3 mps 697 mmHg 97%
15:00 +1°C° 0.4 mm 3 mps 698 mmHg 96%
16:00 +2°C° 0.4 mm 2 mps 698 mmHg 95%
17:00 +2°C° 0.4 mm 2 mps 698 mmHg 95%
18:00 +1°C° 0.3 mm 2 mps 699 mmHg 95%
19:00 +1°C° 0.3 mm 2 mps 699 mmHg 95%
20:00 +1°C° 0.3 mm 2 mps 700 mmHg 96%
21:00 +1°C° 0.3 mm 2 mps 700 mmHg 96%
22:00 +1°C° 0.3 mm 2 mps 701 mmHg 96%
23:00 +1°C° 0.3 mm 2 mps 701 mmHg 96%

Tomorrow, 5 December, Saturday

Time Temperature Precipitation Wind Pressure Humidity
00:00 +1°C° 0.3 mm 2 mps 701 mmHg 96%
01:00 +1°C° 0.3 mm 2 mps 701 mmHg 96%
02:00 +1°C° 0.3 mm 2 mps 701 mmHg 96%
03:00 +1°C° 0.2 mm 2 mps 702 mmHg 96%
04:00 +1°C° 0.2 mm 2 mps 702 mmHg 96%
05:00 +2°C° 0.2 mm 2 mps 702 mmHg 96%
06:00 +1°C° 0.1 mm 3 mps 703 mmHg 96%
07:00 +1°C° 0.1 mm 3 mps 703 mmHg 95%
08:00 +1°C° 0.1 mm 3 mps 704 mmHg 95%
09:00 +2°C° 0.1 mm 3 mps 704 mmHg 94%
10:00 +3°C° 0.1 mm 4 mps 704 mmHg 93%
11:00 +3°C° 0.1 mm 4 mps 705 mmHg 92%
12:00 +3°C° 0.4 mm 4 mps 705 mmHg 92%
13:00 +3°C° 0.4 mm 4 mps 705 mmHg 92%
14:00 +3°C° 0.4 mm 4 mps 705 mmHg 93%
15:00 +2°C° 0.4 mm 3 mps 705 mmHg 94%
16:00 +2°C° 0.4 mm 3 mps 705 mmHg 95%
17:00 +1°C° 0.4 mm 3 mps 706 mmHg 96%
18:00 +1°C° 0.2 mm 3 mps 706 mmHg 96%
19:00 +2°C° 0.2 mm 2 mps 706 mmHg 96%
20:00 +2°C° 0.2 mm 2 mps 707 mmHg 96%
21:00 +2°C° 0.1 mm 2 mps 707 mmHg 96%
22:00 +2°C° 0.1 mm 2 mps 707 mmHg 96%
23:00 +1°C° 0.1 mm 2 mps 707 mmHg 96%

Day after tomorrow, 6 December, Sunday

Time Temperature Precipitation Wind Pressure Humidity
00:00 +1°C° 0 mm 2 mps 707 mmHg 96%
01:00 +1°C° 0 mm 2 mps 707 mmHg 96%
02:00 +1°C° 0 mm 2 mps 707 mmHg 96%
03:00 +1°C° 0.1 mm 2 mps 707 mmHg 96%
04:00 +1°C° 0.1 mm 2 mps 707 mmHg 96%
05:00 +1°C° 0.1 mm 2 mps 707 mmHg 96%
06:00 +2°C° 0.1 mm 2 mps 707 mmHg 96%
07:00 +2°C° 0.1 mm 2 mps 708 mmHg 96%
08:00 +3°C° 0.1 mm 2 mps 708 mmHg 96%
09:00 +4°C° 0.1 mm 2 mps 708 mmHg 92%
10:00 +3°C° 0.1 mm 3 mps 708 mmHg 88%
11:00 +4°C° 0.1 mm 3 mps 708 mmHg 84%
12:00 +4°C° 0.2 mm 3 mps 708 mmHg 88%
13:00 +5°C° 0.2 mm 2 mps 708 mmHg 92%
14:00 +5°C° 0.2 mm 1 mps 708 mmHg 96%
15:00 +5°C° 0.7 mm 1 mps 708 mmHg 97%
16:00 +5°C° 0.7 mm 1 mps 708 mmHg 97%
17:00 +5°C° 0.7 mm 1 mps 708 mmHg 98%
18:00 +6°C° 0.8 mm 1 mps 708 mmHg 98%
19:00 +6°C° 0.8 mm 1 mps 708 mmHg 98%
20:00 +6°C° 0.8 mm 1 mps 708 mmHg 98%
21:00 +5°C° 0.1 mm 0 mps 708 mmHg 98%
22:00 +5°C° 0.1 mm 0 mps 708 mmHg 98%
23:00 +5°C° 0.1 mm 0 mps 708 mmHg 98%

7 December, Monday

Time Temperature Precipitation Wind Pressure Humidity
00:00 +5°C° 0 mm 0 mps 708 mmHg 98%
01:00 +5°C° 0 mm 0 mps 708 mmHg 99%
02:00 +5°C° 0 mm 0 mps 708 mmHg 99%
03:00 +6°C° 0 mm 1 mps 708 mmHg 99%
04:00 +6°C° 0 mm 1 mps 708 mmHg 98%
05:00 +6°C° 0 mm 1 mps 708 mmHg 98%
06:00 +7°C° 0.6 mm 1 mps 708 mmHg 98%
07:00 +6°C° 0.6 mm 2 mps 708 mmHg 98%
08:00 +6°C° 0.6 mm 2 mps 709 mmHg 98%
09:00 +7°C° 0.2 mm 3 mps 709 mmHg 96%
10:00 +8°C° 0.2 mm 3 mps 709 mmHg 93%
11:00 +7°C° 0.2 mm 4 mps 709 mmHg 90%
12:00 +7°C° 0.2 mm 4 mps 709 mmHg 89%
13:00 +7°C° 0.2 mm 5 mps 709 mmHg 89%
14:00 +7°C° 0.2 mm 5 mps 709 mmHg 88%
15:00 +7°C° 0.1 mm 5 mps 709 mmHg 90%
16:00 +6°C° 0.1 mm 4 mps 709 mmHg 92%
17:00 +6°C° 0.1 mm 4 mps 709 mmHg 94%
18:00 +6°C° 0.1 mm 4 mps 709 mmHg 94%
19:00 +6°C° 0.1 mm 5 mps 709 mmHg 93%
20:00 +6°C° 0.1 mm 5 mps 709 mmHg 93%
21:00 +5°C° 0.2 mm 6 mps 709 mmHg 93%
22:00 +7°C° 0.2 mm 6 mps 708 mmHg 92%
23:00 +7°C° 0.2 mm 6 mps 708 mmHg 92%

8 December, Tuesday

Time Temperature Precipitation Wind Pressure Humidity
00:00 +7°C° 0.5 mm 6 mps 708 mmHg 93%
01:00 +5°C° 0.5 mm 6 mps 708 mmHg 93%
02:00 +5°C° 0.5 mm 6 mps 708 mmHg 94%
03:00 +5°C° 0.4 mm 6 mps 708 mmHg 93%
04:00 +6°C° 0.4 mm 5 mps 708 mmHg 92%
05:00 +5°C° 0.4 mm 5 mps 708 mmHg 92%
06:00 +5°C° 0.1 mm 5 mps 708 mmHg 92%
07:00 +5°C° 0.1 mm 4 mps 708 mmHg 92%
08:00 +4°C° 0.1 mm 4 mps 708 mmHg 92%
09:00 +5°C° 0.1 mm 4 mps 708 mmHg 91%
10:00 +5°C° 0.1 mm 5 mps 708 mmHg 90%
11:00 +6°C° 0.1 mm 5 mps 708 mmHg 89%
12:00 +5°C° 0.6 mm 5 mps 708 mmHg 90%
13:00 +5°C° 0.6 mm 5 mps 708 mmHg 90%
14:00 +5°C° 0.6 mm 5 mps 707 mmHg 90%
15:00 +4°C° 0.1 mm 4 mps 708 mmHg 92%
16:00 +3°C° 0.1 mm 3 mps 708 mmHg 93%
17:00 +4°C° 0.1 mm 2 mps 709 mmHg 94%
18:00 +3°C° 0 mm 2 mps 709 mmHg 94%
19:00 +3°C° 0 mm 2 mps 709 mmHg 95%
20:00 +4°C° 0 mm 1 mps 710 mmHg 95%
21:00 +3°C° 0 mm 1 mps 710 mmHg 95%
22:00 +3°C° 0 mm 1 mps 710 mmHg 96%
23:00 +3°C° 0 mm 1 mps 710 mmHg 96%

9 December, Wednesday

Time Temperature Precipitation Wind Pressure Humidity
00:00 +3°C° 0 mm 1 mps 710 mmHg 95%
01:00 +3°C° 0 mm 1 mps 710 mmHg 94%
02:00 +4°C° 0 mm 1 mps 710 mmHg 93%
03:00 +4°C° 0 mm 1 mps 710 mmHg 93%
04:00 +4°C° 0 mm 1 mps 710 mmHg 94%
05:00 +4°C° 0 mm 1 mps 710 mmHg 94%
06:00 +4°C° 0 mm 1 mps 711 mmHg 94%
07:00 +5°C° 0 mm 1 mps 711 mmHg 94%
08:00 +5°C° 0 mm 1 mps 711 mmHg 93%
09:00 +6°C° 0 mm 1 mps 711 mmHg 92%
10:00 +6°C° 0 mm 1 mps 711 mmHg 90%
11:00 +7°C° 0 mm 1 mps 711 mmHg 88%
12:00 +7°C° 0.1 mm 1 mps 711 mmHg 87%
13:00 +7°C° 0.1 mm 1 mps 710 mmHg 86%
14:00 +6°C° 0.1 mm 2 mps 710 mmHg 85%
15:00 +6°C° 0.5 mm 2 mps 709 mmHg 89%
16:00 +5°C° 0.5 mm 2 mps 709 mmHg 92%
17:00 +5°C° 0.5 mm 2 mps 709 mmHg 96%
18:00 +5°C° 0.2 mm 2 mps 709 mmHg 96%
19:00 +5°C° 0.2 mm 2 mps 708 mmHg 96%
20:00 +6°C° 0.2 mm 2 mps 708 mmHg 97%
21:00 +6°C° 0.4 mm 2 mps 708 mmHg 97%
22:00 +7°C° 0.4 mm 2 mps 708 mmHg 97%
23:00 +7°C° 0.4 mm 2 mps 707 mmHg 97%
Show more